HK6REC-23 Weather Reports


Display with metric or nautical units.
time (UTC)temp
F
wind
direction
speed
MPH
gust
MPH
rain 1hr
in
rain 24hr
in
rain mn
in
humidity
%
barometer
mb
20260505163956 69 152 1.0 1.0 0.00 0.00 0.00 76 1013.0
20260505162955 72 152 2.0 2.0 0.00 0.00 0.00 76 1014.0
20260505161954 68 152 1.0 1.0 0.00 0.00 0.00 75 1014.0
20260505160953 71 152 2.0 2.0 0.00 0.00 0.00 75 1013.0
20260505152949 67 135 1.0 1.0 0.00 0.00 0.00 82 1014.0
20260505151948 70 135 2.0 2.0 0.00 0.00 0.00 82 1014.0
20260505150947 66 135 1.0 1.0 0.00 0.00 0.00 80 1014.0
20260505124934 60 101 1.0 1.0 0.00 0.00 0.00 95 1015.0
20260505123933 63 101 1.0 1.0 0.00 0.00 0.00 95 1015.0
20260505122932 57 59 0.0 0.0 0.00 0.00 0.00 95 1015.0
20260505121931 60 59 0.0 0.0 0.00 0.00 0.00 95 1015.0
20260505120930 56 59 0.0 0.0 0.00 0.00 0.00 95 1015.0
20260505115929 59 59 0.0 0.0 0.00 0.00 0.00 95 1015.0
20260505114928 56 59 0.0 0.0 0.00 0.00 0.00 94 1015.0
20260505113927 59 80 0.0 1.0 0.00 0.00 0.00 94 1015.0
20260505112926 52 287 0.0 1.0 0.00 0.00 0.00 95 1015.0
20260505111925 52 287 0.0 1.0 0.00 0.00 0.00 95 1015.0
20260505110924 54 287 0.0 1.0 0.00 0.00 0.00 95 1015.0
20260505101919 53 284 1.0 1.0 0.00 0.00 0.00 95 1014.0
20260505100918 55 284 1.0 1.0 0.00 0.00 0.00 95 1014.0
20260505095917 58 284 1.0 1.0 0.00 0.00 0.00 95 1014.0
20260505094916 55 284 1.0 1.0 0.00 0.00 0.00 95 1014.0
20260505093915 58 284 1.0 1.0 0.00 0.00 0.00 95 1014.0
20260505092914 53 286 1.0 1.0 0.00 0.00 0.00 94 1014.0
20260505091913 53 286 1.0 1.0 0.00 0.00 0.00 94 1014.0
20260505090912 55 286 1.0 1.0 0.00 0.00 0.00 94 1014.0
20260505085911 58 286 1.0 1.0 0.00 0.00 0.00 94 1014.0
20260505084910 55 286 1.0 1.0 0.00 0.00 0.00 94 1014.0
20260505083909 58 286 1.0 1.0 0.00 0.00 0.00 94 1014.0
20260505082908 53 268 1.0 0.0 0.00 0.00 0.00 91 1014.0
20260505081907 53 268 1.0 0.0 0.00 0.00 0.00 91 1014.0
20260505080906 53 268 1.0 0.0 0.00 0.00 0.00 91 1014.0
20260505075905 55 268 1.0 0.0 0.00 0.00 0.00 91 1014.0
20260505074904 54 268 1.0 0.0 0.00 0.00 0.00 91 1014.0
20260505073903 57 268 1.0 0.0 0.00 0.00 0.00 91 1014.0
20260505072902 60 288 0.0 0.0 0.00 0.00 0.00 91 1014.0
20260505071901 57 288 0.0 0.0 0.00 0.00 0.00 92 1014.0
20260505070900 60 288 0.0 0.0 0.00 0.00 0.00 92 1014.0
20260505065859 55 288 0.0 0.0 0.00 0.00 0.00 94 1014.0
20260505064858 55 288 0.0 0.0 0.00 0.00 0.00 94 1014.0
20260505063857 55 288 0.0 0.0 0.00 0.00 0.00 94 1014.0
20260505062856 57 282 0.0 1.0 0.00 0.00 0.00 94 1015.0
20260505061855 57 282 0.0 1.0 0.00 0.00 0.00 94 1015.0
20260505060854 57 282 0.0 1.0 0.00 0.00 0.00 94 1015.0
20260505055853 55 26 1.0 1.0 0.00 0.00 0.00 94 1015.0
20260505054852 58 26 1.0 1.0 0.00 0.00 0.00 94 1015.0
20260505053851 61 26 1.0 2.0 0.00 0.00 0.00 94 1015.0
20260505052850 55 24 1.0 1.0 0.00 0.00 0.00 94 1016.0
20260505051849 55 24 1.0 1.0 0.00 0.00 0.00 94 1016.0
20260505050848 57 24 1.0 1.0 0.00 0.00 0.00 94 1016.0
20260505040842 55 11 1.0 0.0 0.00 0.00 0.00 91 1016.0
20260505035841 57 11 1.0 0.0 0.00 0.00 0.00 91 1016.0
20260505034840 57 11 1.0 0.0 0.00 0.00 0.00 91 1016.0
20260505033839 57 11 1.0 0.0 0.00 0.00 0.00 91 1016.0
20260505032838 56 291 1.0 0.0 0.00 0.00 0.00 88 1016.0
20260505031837 59 291 1.0 0.0 0.00 0.00 0.00 88 1016.0
20260505030836 62 291 1.0 0.0 0.00 0.00 0.00 88 1015.0
20260505025835 56 291 1.0 0.0 0.00 0.00 0.00 88 1015.0
20260505024834 56 291 1.0 0.0 0.00 0.00 0.00 88 1015.0
20260505023833 56 291 1.0 0.0 0.00 0.00 0.00 88 1015.0
20260505022832 58 312 1.0 1.0 0.00 0.00 0.00 88 1015.0
20260505021832 58 312 1.0 1.0 0.00 0.00 0.00 88 1015.0
20260505020831 58 312 1.0 1.0 0.00 0.00 0.00 88 1015.0
20260505015829 56 312 1.0 1.0 0.00 0.00 0.00 91 1015.0
20260505014829 59 312 1.0 1.0 0.00 0.00 0.00 91 1015.0
20260505013828 62 312 1.0 1.0 0.00 0.00 0.00 91 1015.0
20260505012827 55 316 2.0 3.0 0.00 0.00 0.00 89 1014.0
20260505011826 55 316 2.0 3.0 0.00 0.00 0.00 89 1014.0
20260505010825 55 316 2.0 3.0 0.00 0.00 0.00 89 1014.0
20260505005824 57 316 2.0 3.0 0.00 0.00 0.00 89 1014.0
20260505004823 57 316 2.0 3.0 0.00 0.00 0.00 89 1014.0
20260505003822 57 316 2.0 3.0 0.00 0.00 0.00 89 1014.0
20260505002821 59 327 2.0 3.0 0.00 0.00 0.00 89 1013.0
20260505001820 59 327 2.0 3.0 0.00 0.00 0.00 89 1013.0
20260505000819 59 327 2.0 3.0 0.00 0.00 0.00 89 1013.0
20260504235818 57 336 1.0 1.0 0.00 0.00 0.00 87 1013.0
20260504234817 60 336 1.0 1.0 0.00 0.00 0.00 87 1013.0
20260504233816 63 336 1.0 2.0 0.00 0.00 0.00 87 1013.0
20260504232815 57 250 1.0 1.0 0.00 0.00 0.00 76 1013.0
20260504231814 57 250 1.0 1.0 0.00 0.00 0.00 76 1013.0
20260504230813 57 250 1.0 1.0 0.00 0.00 0.00 76 1012.0
20260504225812 59 250 1.0 1.0 0.00 0.00 0.00 76 1012.0
20260504224811 59 250 1.0 1.0 0.00 0.00 0.00 76 1012.0
20260504223810 59 250 1.0 1.0 0.00 0.00 0.00 76 1012.0
20260504222809 58 209 1.0 4.0 0.00 0.00 0.00 76 1011.0
20260504221808 61 209 1.0 4.0 0.00 0.00 0.00 76 1011.0
20260504220807 60 209 1.0 4.0 0.00 0.00 0.00 76 1011.0
20260504215807 63 209 1.0 4.0 0.00 0.00 0.00 76 1011.0
20260504214805 60 209 1.0 4.0 0.00 0.00 0.00 76 1011.0
20260504213805 63 209 1.0 4.0 0.00 0.00 0.00 76 1011.0
20260504212804 62 240 1.0 5.0 0.00 0.00 0.00 76 1010.0
20260504211803 65 240 1.0 5.0 0.00 0.00 0.00 76 1010.0
20260504210802 64 240 1.0 5.0 0.00 0.00 0.00 76 1010.0
20260504205801 67 240 1.0 5.0 0.00 0.00 0.00 76 1010.0
20260504204800 63 242 1.0 3.0 0.00 0.00 0.00 76 1010.0
20260504203759 66 242 1.0 3.0 0.00 0.00 0.00 76 1010.0
20260504202758 69 242 1.0 3.0 0.00 0.00 0.00 76 1009.0
20260504201757 66 242 1.0 3.0 0.00 0.00 0.00 76 1009.0
20260504200756 69 242 1.0 3.0 0.00 0.00 0.00 76 1009.0
20260504195755 65 242 1.0 3.0 0.00 0.00 0.00 76 1009.0
20260504194754 68 242 1.0 3.0 0.00 0.00 0.00 76 1009.0
20260504193753 71 242 1.0 3.0 0.00 0.00 0.00 76 1010.0
20260504192752 67 229 1.0 1.0 0.00 0.00 0.00 76 1010.0
20260504191751 70 229 1.0 1.0 0.00 0.00 0.00 76 1010.0
20260504190750 73 229 1.0 2.0 0.00 0.00 0.00 76 1010.0
20260504185749 68 229 1.0 1.0 0.00 0.00 0.00 74 1010.0
20260504184748 71 229 1.0 2.0 0.00 0.00 0.00 74 1010.0
20260504183747 69 203 1.0 1.0 0.00 0.00 0.00 74 1010.0
20260504182746 72 203 1.0 2.0 0.00 0.00 0.00 74 1011.0
20260504181745 70 203 1.0 1.0 0.00 0.00 0.00 71 1011.0
20260504180745 73 203 1.0 2.0 0.00 0.00 0.00 71 1011.0
20260504175744 69 203 1.0 2.0 0.00 0.00 0.00 69 1011.0
20260504174743 69 197 1.0 2.0 0.00 0.00 0.00 69 1011.0
20260504173742 69 197 1.0 2.0 0.00 0.00 0.00 69 1012.0
20260504172741 69 174 1.0 1.0 0.00 0.00 0.00 75 1013.0
20260504171740 72 174 1.0 2.0 0.00 0.00 0.00 75 1013.0
20260504170739 69 174 1.0 1.0 0.00 0.00 0.00 71 1012.0